Tracking 23731 objects as of 27-Sep-2021
HD Live streaming from Space Station
objects crossing your sky now

TITAN 4B CENTAUR R/B

Track TITAN 4B CENTAUR R/B now!
10-day predictions


NORAD ID: 25725
Int'l Code: 1999-023B
Perigee: 714.6 km
Apogee: 5,153.1 km
Inclination: 28.3 °
Period: 148.9 minutes
Semi major axis: 9304 km
RCS: Unknown
Launch date: April 30, 1999
Source: United States (US)
Launch site: AIR FORCE EASTERN TEST RANGE (AFETR)

Note: This is a ROCKET BODY
aabbcc
Your satellite tracking list
Your tracking list is empty




NASA's NSSDC Master Catalog

Two Line Element Set (TLE):
1 25725U 99023B   21270.48132893  .00000138  00000-0  18450-3 0  9997
2 25725  28.3350 332.3133 2385067 252.7933  79.9467  9.67246654 90059
Source of the keplerian elements: McCants